Regional Weather Roundup
Issued by NWS

Home | Current Version | Previous Version | Graphics & Text | Print | Product List | Glossary On
Versions: 1 2 3 4 5 6 7 8 9 10 11 12 13 14 15 16 17 18 19 20 21 22 23 24 25 26 27 28 29 30 31 32 33 34 35 36 37 38 39 40 41 42 43 44 45 46 47 48 49 50
000
ASUS45 KCYS 261210
RWRWY

WYOMING REGIONAL WEATHER ROUNDUP
NATIONAL WEATHER SERVICE CHEYENNE WY
600 AM MDT THU APR 26 2018

NOTE:  "FAIR" INDICATES FEW OR NO CLOUDS BELOW 12,000 FEET
WITH NO SIGNIFICANT WEATHER AND/OR OBSTRUCTIONS TO VISIBILITY.

WYZ001-261300-
YELLOWSTONE NATIONAL PARK

CITY           SKY/WX    TMP DP  RH WIND       PRES   REMARKS
LK YELLOWSTONE   N/A     20  18  92 CALM      30.33R
6HR MIN TEMP:  20; 6HR MAX TEMP:  34;

W YELLOWSTONE  NOT AVBL

$$
WYZ002>013-054>058-071-098>099-261300-
NORTHERN WYOMING

CITY           SKY/WX    TMP DP  RH WIND       PRES   REMARKS
JACKSON        FAIR      27  23  85 CALM      30.30R
CODY           FAIR      33  30  88 CALM      30.29S
GREYBULL       FAIR      38  32  79 CALM      30.27R
6HR MIN TEMP:  37; 6HR MAX TEMP:  45;

WORLAND        FAIR      31  29  92 SE3       30.28R
6HR MIN TEMP:  30; 6HR MAX TEMP:  46;

SHERIDAN       CLOUDY    43  32  65 W9        30.26R
6HR MIN TEMP:  40; 6HR MAX TEMP:  46;

BUFFALO        MOCLDY    38  30  73 NW9       30.26R WCI  31
6HR MIN TEMP:  37; 6HR MAX TEMP:  45; 6HR PCP: TRACE;

GILLETTE       FAIR      36  33  89 W12       30.23R WCI  28
6HR MIN TEMP:  36; 6HR MAX TEMP:  48;

HULETT         FAIR      41  32  70 NW5       30.22R
NEWCASTLE      FAIR      36  30  80 N7        30.22R WCI  30

$$
WYZ014>020-022>026-101>103-261300-
CENTRAL WYOMING

CITY           SKY/WX    TMP DP  RH WIND       PRES   REMARKS
BIG PINEY      FAIR      21  15  78 NW7       30.29R WCI  12
6HR MIN TEMP:  20; 6HR MAX TEMP:  34;

PINEDALE       FAIR      27  21  80 CALM      30.29S
DUBOIS         FAIR      27  23  86 W3        30.30R
LANDER         FAIR      36  30  79 SE10      30.27S WCI  28
6HR MIN TEMP:  36; 6HR MAX TEMP:  47;

RIVERTON       FAIR      37  28  70 E3        30.29R
6HR MIN TEMP:  34; 6HR MAX TEMP:  45; 6HR PCP: TRACE;

CASPER         MOCLDY    35  32  88 N5        30.28R WCI  31
6HR MIN TEMP:  35; 6HR MAX TEMP:  47; 6HR PCP: TRACE;

DOUGLAS        FAIR      37  31  78 NW10      30.26R WCI  30
6HR MIN TEMP:  37; 6HR MAX TEMP:  49;


$$
WYZ021-027>030-104>119-261300-
SOUTHERN WYOMING

CITY           SKY/WX    TMP DP  RH WIND       PRES   REMARKS
EVANSTON       FAIR      37  22  54 SE8       30.26R WCI  31
6HR MIN TEMP:  36; 6HR MAX TEMP:  48;

KEMMERER       FAIR      30  23  74 N14       30.28S WCI  20
FORT BRIDGER   FAIR      35  22  58 SE12      30.30S WCI  27
ROCK SPRINGS   FAIR      33  28  81 E8        30.30R WCI  26
6HR MIN TEMP:  32; 6HR MAX TEMP:  47;

DIXON          PTSUNNY   38  23  55 NE13      30.28R WCI  30
RAWLINS        FAIR      30  24  78 E6        30.29R WCI  24
6HR MIN TEMP:  30; 6HR MAX TEMP:  46;

SARATOGA       CLOUDY    36  27  69 N6        30.28S WCI  31
LARAMIE        MOCLDY    30  30 100 NW9       30.25R WCI  22
6HR MIN TEMP:  30; 6HR MAX TEMP:  44; 6HR PCP: TRACE;

CHEYENNE       CLOUDY    39  29  67 N18G25    30.21R WCI  30
6HR MIN TEMP:  38; 6HR MAX TEMP:  48;

TORRINGTON     MOCLDY    46  31  55 NW20G28   30.18R
6HR MIN TEMP:  46; 6HR MAX TEMP:  56;

PINE BLUFFS    PTSUNNY   43  28  56 NW22G31   30.17R

$$



USA.gov is the U.S. government's official web portal to all federal, state and local government web resources and services.